Bookmark and Share
Track history (hours):
 

Crown Princess

Last reported at 2014-Apr-23 01:00 UTC. Time now 2014-Apr-23 15:41 UTC.
Position N 34°54' W 122°18'.

Type: Ship. MMSI: 310500000.

Wind from 320 at 22 knots

Waves 2.5 meters (8 feet), 4 second period

Barometer 1019.9 mb
Air temperature 13.0 ° C
Visibility: greater than 10.8 NM
Dewpoint 10.1 ° C
Water temperature 14.0 ° C

NotesDate/timePositionNaut miles runAvg speedWind from/ knotsBaromVisibWave heightAir tempDewpointWater temp
2014-Apr-23 01:00N 34°54' W 122°18'17 9.9 320 / 221019.910.8 2.513.010.114.0
2014-Apr-22 23:17N 35°11' W 122°22'810.7
2014-Apr-22 22:32N 35°19' W 122°23'1110.9
2014-Apr-22 21:33N 35°29' W 122°25'1110.8
2014-Apr-22 20:33N 35°40' W 122°27'1110.9
2014-Apr-22 19:33N 35°51' W 122°28'1110.8
2014-Apr-22 18:33N 36°01' W 122°33'1110.9
2014-Apr-22 17:33N 36°10' W 122°40'1110.8
2014-Apr-22 16:33N 36°20' W 122°46'1210.9
2014-Apr-22 15:30N 36°30' W 122°52'2210.9
2014-Apr-22 13:29N 36°51' W 123°00'1011.1
2014-Apr-22 12:32N 37°01' W 123°06'1310.7
2014-Apr-22 11:19N 37°13' W 123°12'1910.5
2014-Apr-22 09:30N 37°31' W 123°07'1111.8
2014-Apr-22 08:33N 37°38' W 122°56'1111.1
2014-Apr-22 07:32N 37°44' W 122°43'1313.4
2014-Apr-22 06:34N 37°49' W 122°28'3 3.0
2014-Apr-22 05:31N 37°48' W 122°24'0 0.0
2014-Apr-22 04:31N 37°48' W 122°24'0 0.0
2014-Apr-22 03:33N 37°48' W 122°24'0 0.0
2014-Apr-22 02:33N 37°48' W 122°24'0 0.0
2014-Apr-22 01:29N 37°48' W 122°24'0 0.0
2014-Apr-22 00:32N 37°48' W 122°24'0 0.0
2014-Apr-21 23:32N 37°48' W 122°24'0 0.0
2014-Apr-21 22:31N 37°48' W 122°24'0 0.0
2014-Apr-21 21:31N 37°48' W 122°24'0 0.0
2014-Apr-21 20:30N 37°48' W 122°24'0 0.0
2014-Apr-21 19:33N 37°48' W 122°24'0 0.0
2014-Apr-21 18:32N 37°48' W 122°24'0 0.1
2014-Apr-21 17:32N 37°49' W 122°24'0 0.1
2014-Apr-21 16:33N 37°48' W 122°24'0 0.0
2014-Apr-21 15:32N 37°48' W 122°24'0 0.0
2014-Apr-21 14:29N 37°48' W 122°24'0 0.0
2014-Apr-21 13:33N 37°48' W 122°24'6 6.5
2014-Apr-21 12:33N 37°47' W 122°32'10 9.9
2014-Apr-21 11:33N 37°39' W 122°40'1010.5
2014-Apr-21 10:33N 37°29' W 122°40'9 9.5
2014-Apr-21 09:33N 37°19' W 122°40'1010.4
2014-Apr-21 08:33N 37°10' W 122°45'1111.3
2014-Apr-21 07:33N 36°59' W 122°51'1111.4
2014-Apr-21 06:33N 36°48' W 122°53'1212.5
2014-Apr-21 05:33N 36°36' W 122°53'1313.5
2014-Apr-21 04:33N 36°24' W 122°45'1313.0
2014-Apr-21 03:33N 36°13' W 122°37'1010.5
2014-Apr-21 02:33N 36°04' W 122°31'1010.1
2014-Apr-21 01:33N 35°55' W 122°25'915.2
2014-Apr-21 01:00N 35°48' W 122°18'2 4.9 320 / 281018.910.8 3.013.310.814.0
2014-Apr-21 00:33N 35°46' W 122°18'1111.0
2014-Apr-20 23:33N 35°36' W 122°12'1111.2
2014-Apr-20 22:33N 35°27' W 122°05'1111.3
2014-Apr-20 21:33N 35°17' W 121°58'1111.4
2014-Apr-20 20:33N 35°07' W 121°51'1211.7
2014-Apr-20 19:33N 34°56' W 121°44'1211.8
2014-Apr-20 18:33N 34°46' W 121°37'1212.0
2014-Apr-20 17:33N 34°36' W 121°30'1211.6
2014-Apr-20 16:33N 34°26' W 121°23'1211.6
2014-Apr-20 15:31N 34°15' W 121°16'1112.0
2014-Apr-20 14:33N 34°05' W 121°09'4611.4
2014-Apr-20 10:30N 33°32' W 120°30'1212.3
2014-Apr-20 09:33N 33°34' W 120°16'1412.6
2014-Apr-20 08:25N 33°36' W 119°59'4213.1
2014-Apr-20 05:12N 33°42' W 119°09'2312.7
2014-Apr-20 03:25N 33°41' W 118°42'1111.5
2014-Apr-20 02:28N 33°42' W 118°29'1111.8
2014-Apr-20 01:33N 33°38' W 118°17'7 6.6
2014-Apr-20 00:33N 33°45' W 118°17'0 0.0
2014-Apr-19 23:32N 33°45' W 118°17'0 0.0
2014-Apr-19 22:31N 33°45' W 118°17'0 0.0
2014-Apr-19 20:15N 33°45' W 118°17'16 1.6
2014-Apr-19 10:08N 33°30' W 118°08'811.7
2014-Apr-19 09:25N 33°22' W 118°04'1011.3
2014-Apr-19 08:33N 33°13' W 117°60'1111.4
2014-Apr-19 07:34N 33°03' W 117°53'1414.5
2014-Apr-19 06:34N 32°49' W 117°49'1514.7
2014-Apr-19 05:34N 32°35' W 117°45'1514.7
2014-Apr-19 04:34N 32°21' W 117°39'4913.6
2014-Apr-19 01:00N 31°36' W 117°18'3215.9 260 / 141012.410.8 1.016.914.517.0
2014-Apr-18 23:00N 31°06' W 117°06'   280 / 101012.410.8 1.016.714.617.0
2014-Apr-15 23:34N 20°37' W 105°27'1211.7
2014-Apr-15 22:33N 20°39' W 105°15'0 0.0
2014-Apr-15 21:32N 20°39' W 105°15'0 0.0
2014-Apr-15 20:31N 20°39' W 105°15'0 0.0
2014-Apr-15 19:31N 20°39' W 105°15'0 0.0
2014-Apr-15 18:33N 20°39' W 105°15'0 0.0
2014-Apr-15 17:33N 20°39' W 105°15'0 0.0
2014-Apr-15 16:33N 20°39' W 105°15'0 0.0
2014-Apr-15 15:32N 20°39' W 105°15'0 0.0
2014-Apr-15 14:32N 20°39' W 105°15'0 0.0
2014-Apr-15 12:32N 20°39' W 105°15'0 0.2
2014-Apr-15 11:34N 20°39' W 105°15'1010.0
2014-Apr-15 10:34N 20°38' W 105°25'1918.0
2014-Apr-15 09:29N 20°38' W 105°46'7418.8
2014-Apr-15 05:34N 21°10' W 106°58'87220.3
2014-Apr-13 10:32N 32°10' W 117°35'2121.7
2014-Apr-13 09:33N 32°30' W 117°44'2121.4
2014-Apr-13 08:33N 32°51' W 117°50'1717.2
2014-Apr-13 07:34N 33°06' W 117°58'1716.6
2014-Apr-13 06:33N 33°21' W 118°07'1514.7
2014-Apr-13 05:30N 33°36' W 118°13'  

Dump ship's entire track history

sailing weather and tide predictions

Crown Princess — ZCDM6 — position and weather